User: anonymous   Login
Location: Lawrence Hall of Science
(37.8785°N, 122.2415°W)
Time: 14:36:25
(UTC-08:00)
Language:

Cosmos 2098 Rocket - Orbit

View from above orbital plane
View from above orbital plane
View from above satellite
View from above satellite

Ground track
Ground track

The orbit data is extracted from the following two-line orbital elements,

1 20775U 90078B   16040.51664211  .00004996  00000-0  25198-3 0  9998
2 20775  82.9288  91.9222 0603865  59.7357 306.2178 14.27269057278253
Epoch (UTC): 09 February 2016 12:23:57
Eccentricity: 0.0603865
inclination: 82.9288°
perigee height: 367 km
apogee height: 1234 km
right ascension of ascending node: 91.9222°
argument of perigee: 59.7357°
revolutions per day: 14.27269057
mean anomaly at epoch: 306.2178°
orbit number at epoch: 27825

The dashed part of the orbit path shows where the satellite is in the earth's shadow,  

DLR